GW3417 Weather Reports


time (UTC)temp
F
wind
direction
speed
knots
gust
knots
rain 1hr
in
rain 24hr
in
rain mn
in
humidity
%
barometer
mb
20260505162627 75 23 51.3 3.5 0.07 0.07 0.07 90 1014.9
20260505161847 122 23 51.3 6.1 0.00 0.00 0.00 90
20260505161334 76 158 3.5 6.1 0.00 0.00 0.00 90
20260505151339 74 23 1.7 3.5 0.00 0.00 0.00 93 1012.5
20260505150830 74 23 0.9 3.5 0.00 0.00 0.00 92 1012.8
20260505150319 74 23 1.7 3.5 0.00 0.00 0.00 92 1012.7
20260505140628 74 0 2.6 7.0 0.00 0.00 0.00 90 1013.1
20260505140118 73 0 2.6 5.2 0.00 0.00 0.00 91 1013.2
20260505124857 70 45 4.3 7.0 0.00 0.00 0.00 95 1012.9
20260505124347 70 45 1.7 6.1 0.00 0.00 0.00 96 1012.8
20260505123326 69 113 2.6 7.0 0.00 0.00 0.00 97 1012.5
20260505122306 68 90 2.6 5.2 0.00 0.00 0.00 97 1012.2
20260505121756 68 45 1.7 7.0 0.00 0.00 0.00 97 1012.5
20260505121246 68 23 3.5 7.0 0.00 0.00 0.00 97 1012.5
20260505120735 68 23 1.7 6.1 0.00 0.00 0.00 98 1012.4
20260505120226 68 23 1.7 5.2 0.00 0.00 0.00 98 1012.4
20260505115819 67 113 1.7 5.2 0.00 0.00 0.00 98 1012.4
20260505115205 67 23 0.9 5.2 0.00 0.00 0.00 98 1012.3
20260505114656 67 45 0.9 3.5 0.00 0.00 0.00 98 1012.5
20260505114145 67 45 1.7 3.5 0.00 0.00 0.00 98 1012.5
20260505113634 67 45 1.7 3.5 0.00 0.00 0.00 98 1012.4
20260505113125 67 90 1.7 5.2 0.00 0.00 0.00 98 1012.3
20260505112615 67 90 1.7 5.2 0.00 0.00 0.00 98 1012.3
20260505112105 67 0 0.9 3.5 0.00 0.00 0.00 98 1012.1
20260505111554 67 90 1.7 3.5 0.00 0.00 0.00 98 1012.1
20260505111045 66 45 0.9 3.5 0.00 0.00 0.00 98 1012.1
20260505110536 66 68 1.7 3.5 0.00 0.00 0.00 98 1012.1
20260505101353 66 0 1.7 5.2 0.00 0.00 0.00 98 1011.5
20260505100333 66 23 0.9 5.2 0.00 0.00 0.00 98 1011.6
20260505095823 66 90 1.7 5.2 0.00 0.00 0.00 98 1011.6
20260505095312 66 45 0.9 5.2 0.00 0.00 0.00 98 1011.5
20260505094803 66 90 0.9 5.2 0.00 0.00 0.00 98 1011.3
20260505094253 66 68 1.7 5.2 0.00 0.00 0.00 98 1011.6
20260505093743 66 45 1.7 5.2 0.00 0.00 0.00 98 1011.3
20260505093232 66 68 0.9 5.2 0.00 0.00 0.00 98 1011.1
20260505092722 66 23 0.0 5.2 0.00 0.00 0.00 98 1011.2
20260505091702 66 113 1.7 3.5 0.00 0.00 0.00 98 1011.3
20260505091152 66 68 1.7 3.5 0.00 0.00 0.00 98 1011.1
20260505090642 66 68 0.9 3.5 0.00 0.00 0.00 98 1011.2
20260505090131 66 45 0.9 3.5 0.00 0.00 0.00 98 1011.0
20260505085621 66 23 1.7 5.2 0.00 0.00 0.00 98 1011.1
20260505084601 66 113 1.7 3.5 0.00 0.00 0.00 98 1011.1
20260505084051 66 45 1.7 5.2 0.00 0.00 0.00 98 1011.1
20260505083542 66 68 0.9 5.2 0.00 0.00 0.00 97 1011.1
20260505083034 66 0 0.9 5.2 0.00 0.00 0.00 97 1011.2
20260505082521 66 90 2.6 5.2 0.00 0.00 0.00 97 1011.1
20260505082010 66 0 1.7 5.2 0.00 0.00 0.00 97 1011.4
20260505080950 65 68 1.7 6.1 0.00 0.00 0.00 97 1011.1
20260505080440 65 45 0.9 6.1 0.00 0.00 0.00 97 1011.1
20260505075930 65 45 1.7 5.2 0.00 0.00 0.00 97 1010.9
20260505075420 65 45 1.7 3.5 0.00 0.00 0.00 97 1011.0
20260505074909 65 45 1.7 3.5 0.00 0.00 0.00 97 1011.2
20260505074400 65 90 1.7 3.5 0.00 0.00 0.00 97 1011.2
20260505073850 65 90 1.7 3.5 0.00 0.00 0.00 97 1011.1
20260505073339 65 23 1.7 5.2 0.00 0.00 0.00 97 1011.2
20260505072829 65 45 0.9 5.2 0.00 0.00 0.00 97 1011.0
20260505071810 65 23 1.7 3.5 0.00 0.00 0.00 97 1011.3
20260505071259 65 90 1.7 3.5 0.00 0.00 0.00 97 1011.5
20260505070749 65 0 1.7 3.5 0.00 0.00 0.00 96 1011.4
20260505070239 65 45 1.7 3.5 0.00 0.00 0.00 96 1011.5
20260505065729 65 23 1.7 5.2 0.00 0.00 0.00 96 1011.2
20260505065219 65 23 2.6 5.2 0.00 0.00 0.00 96 1011.6
20260505064159 66 68 1.7 3.5 0.00 0.00 0.00 96 1011.4
20260505063139 66 135 1.7 6.1 0.00 0.00 0.00 96 1011.2
20260505062628 66 113 0.9 6.1 0.00 0.00 0.00 96 1011.2
20260505062119 66 68 0.9 3.5 0.00 0.00 0.00 96 1011.5
20260505061608 66 68 0.9 3.5 0.00 0.00 0.00 96 1011.6
20260505061058 66 45 0.0 3.5 0.00 0.00 0.00 96 1011.6
20260505060037 66 45 0.9 3.5 0.00 0.00 0.00 95 1011.7
20260505055528 66 68 1.7 3.5 0.00 0.00 0.00 95 1011.9
20260505055017 66 45 1.7 3.5 0.00 0.00 0.00 95 1011.7
20260505054507 66 68 0.9 3.5 0.00 0.00 0.00 95 1011.7
20260505053956 66 90 1.7 3.5 0.00 0.00 0.00 95 1011.8
20260505052937 66 68 1.7 3.5 0.00 0.00 0.00 95 1011.6
20260505052427 66 45 0.0 3.5 0.00 0.00 0.00 95 1011.7
20260505051917 66 90 0.9 5.2 0.00 0.00 0.00 95 1011.7
20260505051406 66 23 1.7 5.2 0.00 0.00 0.00 95 1011.6
20260505050857 67 45 2.6 7.0 0.00 0.00 0.00 95 1011.5
20260505050347 67 23 2.6 7.0 0.00 0.00 0.00 95 1011.8
20260505041715 66 45 1.7 5.2 0.00 0.00 0.00 94 1011.9
20260505040655 67 45 1.7 3.5 0.00 0.00 0.00 94 1011.6
20260505035635 67 45 1.7 5.2 0.00 0.00 0.00 94 1011.9
20260505035124 67 45 1.7 5.2 0.00 0.00 0.00 94 1012.0
20260505034615 67 90 1.7 3.5 0.00 0.00 0.00 94 1012.0
20260505034104 67 45 0.9 6.1 0.00 0.00 0.00 94 1012.0
20260505033555 67 45 1.7 6.1 0.00 0.00 0.00 94 1012.2
20260505033044 67 0 0.9 5.2 0.00 0.00 0.00 94 1012.2
20260505032534 67 23 1.7 5.2 0.00 0.00 0.00 94 1012.0
20260505031517 67 68 1.7 7.0 0.00 0.00 0.00 94 1011.8
20260505031003 67 45 2.6 7.0 0.00 0.00 0.00 94 1011.9
20260505025943 67 45 3.5 9.6 0.00 0.00 0.00 93 1011.9
20260505025434 67 23 3.5 9.6 0.00 0.00 0.00 93 1011.9
20260505024926 67 23 3.5 9.6 0.00 0.00 0.00 93 1011.9
20260505024413 67 338 3.5 9.6 0.00 0.00 0.00 93 1011.8
20260505023904 67 23 3.5 9.6 0.00 0.00 0.00 93 1011.7
20260505022843 67 90 2.6 11.3 0.00 0.00 0.00 93 1011.6
20260505022333 67 45 1.7 7.8 0.00 0.00 0.00 93 1011.5
20260505021823 67 90 3.5 9.6 0.00 0.00 0.00 93 1011.6
20260505021312 67 0 4.3 9.6 0.00 0.00 0.00 92 1011.5
20260505020802 67 0 2.6 6.1 0.00 0.00 0.00 92 1011.4
20260505020252 67 0 1.7 7.8 0.00 0.00 0.00 92 1011.5
20260505015742 67 23 2.6 7.8 0.00 0.00 0.00 92 1011.2
20260505014213 67 113 1.7 9.6 0.00 0.00 0.00 92 1011.1
20260505013701 67 45 3.5 9.6 0.00 0.00 0.00 92 1011.1
20260505013151 67 45 3.5 9.6 0.00 0.00 0.00 91 1011.1
20260505012132 68 45 5.2 9.6 0.00 0.00 0.00 91 1011.1
20260505010601 68 23 2.6 7.0 0.00 0.00 0.00 90 1011.0
20260505010052 68 45 1.7 6.1 0.00 0.00 0.00 90 1011.0
20260505005541 67 338 3.5 6.1 0.00 0.00 0.00 90 1010.9
20260505005030 67 90 1.7 5.2 0.00 0.00 0.00 90 1010.9
20260505004521 67 45 0.9 5.2 0.00 0.00 0.00 89 1011.2
20260505004010 67 68 1.7 5.2 0.00 0.00 0.00 89 1011.2
20260505003500 67 23 0.9 3.5 0.00 0.00 0.00 89 1010.8
20260505002951 66 23 1.7 3.5 0.00 0.00 0.00 89 1010.8
20260505002440 66 23 1.7 3.5 0.00 0.00 0.00 88 1010.9
20260505001420 66 68 0.0 5.2 0.00 0.00 0.00 87 1011.0
20260505000910 66 113 1.7 3.5 0.00 0.00 0.00 87 1011.2
20260505000400 65 23 1.7 3.5 0.00 0.00 0.00 86 1011.3
20260504235849 65 113 0.9 3.5 0.00 0.00 0.00 86 1011.2
20260504235340 65 45 0.0 1.7 0.00 0.00 0.00 86 1011.0
20260504234830 65 90 1.7 1.7 0.00 0.00 0.00 86 1011.1
20260504234321 65 23 0.9 3.5 0.00 0.00 0.00 85 1011.3
20260504233809 66 68 0.0 3.5 0.00 0.00 0.00 84 1011.1
20260504233259 66 23 1.7 3.5 0.00 0.00 0.00 83 1010.9
20260504232749 67 45 1.7 3.5 0.00 0.00 0.00 83 1010.8
20260504231728 67 68 0.0 3.5 0.00 0.00 0.00 82 1010.7
20260504231218 67 90 1.7 3.5 0.00 0.00 0.00 82 1010.7
20260504230708 67 23 0.9 1.7 0.00 0.00 0.00 82 1010.5
20260504230159 68 45 0.0 1.7 0.00 0.00 0.00 81 1010.4
20260504225649 68 45 0.9 3.5 0.00 0.00 0.00 81 1010.2
20260504224628 69 68 0.9 1.7 0.00 0.00 0.00 80 1010.1
20260504224118 69 68 0.9 3.5 0.00 0.00 0.00 79 1010.1
20260504223608 69 90 0.0 3.5 0.00 0.00 0.00 78 1010.1
20260504223058 70 45 0.0 1.7 0.00 0.00 0.00 78 1010.0
20260504222037 70 68 0.9 1.7 0.00 0.00 0.00 77 1010.1
20260504221017 70 68 0.0 1.7 0.00 0.00 0.00 76 1009.9
20260504220507 70 68 0.9 1.7 0.00 0.00 0.00 76 1009.9
20260504215957 71 68 0.9 3.5 0.00 0.00 0.00 76 1009.9
20260504215446 71 23 0.0 3.5 0.00 0.00 0.00 75 1009.7
20260504214427 71 45 0.0 1.7 0.00 0.00 0.00 74 1009.6
20260504213407 72 68 1.7 3.5 0.00 0.00 0.00 73 1009.5
20260504212856 72 45 0.9 3.5 0.00 0.00 0.00 73 1009.5
20260504212346 72 68 0.9 3.5 0.00 0.00 0.00 72 1009.7
20260504211836 72 90 1.7 1.7 0.00 0.00 0.00 71 1009.6
20260504210816 72 68 0.9 3.5 0.00 0.00 0.00 71 1009.7
20260504210306 72 45 0.9 3.5 0.00 0.00 0.00 72 1009.8
20260504205245 72 45 1.7 3.5 0.00 0.00 0.00 71 1009.7
20260504204735 73 45 1.7 3.5 0.00 0.00 0.00 70 1009.8
20260504204225 73 23 1.7 3.5 0.00 0.00 0.00 70 1010.0
20260504203204 73 0 1.7 5.2 0.00 0.00 0.00 69 1009.9
20260504202655 73 23 1.7 5.2 0.00 0.00 0.00 69 1009.9
20260504202144 73 0 2.6 5.2 0.00 0.00 0.00 68 1010.0
20260504201635 73 45 0.9 5.2 0.00 0.00 0.00 68 1010.0
20260504201124 74 23 3.5 5.2 0.00 0.00 0.00 68 1010.1
20260504200104 74 68 1.7 6.1 0.00 0.00 0.00 66 1010.0
20260504195044 75 45 3.5 7.0 0.00 0.00 0.00 66 1010.1
20260504194534 75 45 3.5 7.0 0.00 0.00 0.00 65 1010.1
20260504194024 75 0 2.6 9.6 0.00 0.00 0.00 65 1010.2
20260504193514 76 90 3.5 9.6 0.00 0.00 0.00 62 1010.2